Погода в Орше

Беларусь     54°30′38″N   30°25′46″E
темп.,
°C
ветер,
м/с
пор.,
м/с
влажн.,
%
обл.,
%
осадки,
мм/ч
давл.,
гПа
погр.,
м
5 марта, пт
пт500:00−4сз489060 0.0 1008195
03:00−5сз499130 0.0 1010303
06:00−7сз36940 0.0 1011130
09:00−6зсз36930 0.0 1012247
12:00−2зсз578413 0.0 1012800
15:00−1зсз686644 0.4 10131499
18:00−3сз5107669 0.2 1015500
21:00−6сз378584 0.3 1017179
6 марта, сб
сб600:00−7сз488226 0.0 1018174
03:00−8сз368413 0.0 1020102
06:00−8сз338334 0.0 102052
09:00−7сз238137 0.0 1021109
12:00−3сз57650 0.0 10221278
15:00−3зсз58632 0.0 10211444
18:00−4з377346 0.0 1020173
21:00−5зюз5127649 0.0 1019282
7 марта, вс
вс700:00−4зюз7147574 0.0 1016548
03:00−4юз8177987 0.0 1012732
06:00−3зюз101782100 0.0 1006944
09:00−1зюз121991100 0.6 10021200
12:00−2сз111772100 1.4 10041540
15:00−2зсз9155566 1.4 10062429
18:00−3з7146985 0.0 10041167
21:00−4з7167477 0.1 1003714
8 марта, пн
пн800:00−5з816745 0.0 1003771
03:00−5сз8128825 0.6 1004959
06:00−9сз5117778 0.1 1006521
09:00−8сз388339 0.1 1009686
12:00−6сз46700 0.0 1010989
15:00−4зсз576934 0.0 10111148
18:00−5сз377991 0.0 1011269
21:00−7ссз378795 0.1 1013335
9 марта, вт
вт900:00−9с4893100 0.1 1015456
03:00−11с488898 0.1 1017548
06:00−12с588895 0.0 1019609
09:00−12с588798 0.1 1021605
12:00−10ссз467886 0.0 1023639
15:00−8сз456843 0.0 1023840
18:00−8зсз247512 0.0 1023173
21:00−10зюз348031 0.0 102483